| time (UTC) | temp F | wind direction | speed MPH | gust MPH | rain 1hr in | rain 24hr in | rain mn in | humidity % | barometer mb |
| 20260507024600 | 59 | 340 | 26.0 | 43.0 | 0.00 | 0.00 | 0.00 | 66 | 1007.4 |
| 20260507023057 | 60 | 337 | 20.0 | 44.0 | 0.00 | 0.00 | 0.00 | 67 | 1007.3 |
| 20260507021604 | 60 | 347 | 15.0 | 41.0 | 0.00 | 0.00 | 0.00 | 67 | 1007.4 |
| 20260507020054 | 60 | 324 | 13.0 | 33.0 | 0.00 | 0.00 | 0.00 | 66 | 1007.3 |
| 20260507014556 | 60 | 344 | 18.0 | 31.0 | 0.00 | 0.00 | 0.00 | 66 | 1007.2 |
| 20260507013050 | 60 | 351 | 18.0 | 34.0 | 0.00 | 0.00 | 0.00 | 67 | 1007.2 |
| 20260507011555 | 61 | 319 | 21.0 | 42.0 | 0.00 | 0.00 | 0.00 | 67 | 1007.0 |
| 20260507010047 | 61 | 332 | 20.0 | 50.0 | 0.00 | 0.00 | 0.00 | 66 | 1006.9 |
| 20260507004545 | 61 | 342 | 23.0 | 45.0 | 0.00 | 0.00 | 0.00 | 65 | 1007.0 |
| 20260507003042 | 62 | 325 | 11.0 | 35.0 | 0.00 | 0.00 | 0.00 | 64 | 1006.8 |
| 20260507001540 | 62 | 353 | 23.0 | 42.0 | 0.00 | 0.00 | 0.00 | 64 | 1006.6 |
| 20260507000038 | 62 | 333 | 25.0 | 44.0 | 0.00 | 0.00 | 0.00 | 65 | 1006.5 |
| 20260506234548 | 62 | 344 | 23.0 | 49.0 | 0.00 | 0.00 | 0.00 | 66 | 1006.1 |
| 20260506233034 | 62 | 339 | 26.0 | 49.0 | 0.00 | 0.00 | 0.00 | 70 | 1006.3 |
| 20260506231532 | 62 | 321 | 22.0 | 41.0 | 0.00 | 0.00 | 0.00 | 70 | 1006.2 |
| 20260506230032 | 63 | 309 | 20.0 | 47.0 | 0.00 | 0.00 | 0.00 | 68 | 1006.1 |
| 20260506224527 | 63 | 319 | 7.0 | 29.0 | 0.00 | 0.00 | 0.00 | 67 | 1005.8 |
| 20260506223024 | 62 | 289 | 0.0 | 2.0 | 0.00 | 0.00 | 0.00 | 69 | 1005.6 |
| 20260506221523 | 62 | 290 | 0.0 | 0.0 | 0.00 | 0.00 | 0.00 | 69 | 1005.3 |
| 20260506220028 | 63 | 268 | 7.0 | 15.0 | 0.00 | 0.00 | 0.00 | 68 | 1004.9 |
| 20260506214517 | 63 | 217 | 1.0 | 15.0 | 0.00 | 0.00 | 0.00 | 66 | 1004.3 |
| 20260506213022 | 64 | 224 | 4.0 | 18.0 | 0.00 | 0.00 | 0.00 | 66 | 1004.0 |
| 20260506211516 | 64 | 220 | 5.0 | 19.0 | 0.00 | 0.00 | 0.00 | 66 | 1004.0 |
| 20260506210015 | 64 | 235 | 6.0 | 18.0 | 0.00 | 0.00 | 0.00 | 65 | 1003.7 |
| 20260506204515 | 65 | 213 | 11.0 | 24.0 | 0.00 | 0.00 | 0.00 | 65 | 1003.7 |
| 20260506203023 | 65 | 210 | 10.0 | 24.0 | 0.00 | 0.00 | 0.00 | 65 | 1003.7 |
| 20260506201514 | 65 | 192 | 8.0 | 23.0 | 0.00 | 0.00 | 0.00 | 63 | 1003.6 |
| 20260506200014 | 66 | 198 | 3.0 | 21.0 | 0.00 | 0.00 | 0.00 | 62 | 1003.6 |
| 20260506194513 | 67 | 206 | 14.0 | 30.0 | 0.00 | 0.00 | 0.00 | 61 | 1003.1 |
| 20260506193016 | 67 | 246 | 15.0 | 36.0 | 0.00 | 0.00 | 0.00 | 59 | 1002.9 |
| 20260506191512 | 67 | 213 | 19.0 | 42.0 | 0.00 | 0.00 | 0.00 | 59 | 1002.8 |
| 20260506190010 | 68 | 215 | 18.0 | 44.0 | 0.00 | 0.00 | 0.00 | 58 | 1002.8 |
| 20260506184511 | 68 | 225 | 24.0 | 44.0 | 0.00 | 0.00 | 0.00 | 57 | 1002.6 |
| 20260506183010 | 68 | 235 | 22.0 | 40.0 | 0.00 | 0.00 | 0.00 | 57 | 1002.5 |
| 20260506181509 | 69 | 222 | 19.0 | 46.0 | 0.00 | 0.00 | 0.00 | 55 | 1002.4 |
| 20260506180014 | 70 | 225 | 23.0 | 50.0 | 0.00 | 0.00 | 0.00 | 54 | 1002.2 |
| 20260506174508 | 70 | 224 | 21.0 | 42.0 | 0.00 | 0.00 | 0.00 | 53 | 1002.2 |
| 20260506173007 | 71 | 247 | 21.0 | 47.0 | 0.00 | 0.00 | 0.00 | 52 | 1002.2 |
| 20260506171515 | 72 | 240 | 19.0 | 47.0 | 0.00 | 0.00 | 0.00 | 53 | 1002.1 |
| 20260506170008 | 72 | 214 | 22.0 | 44.0 | 0.00 | 0.00 | 0.00 | 52 | 1002.0 |
| 20260506164505 | 73 | 225 | 21.0 | 43.0 | 0.00 | 0.00 | 0.00 | 51 | 1002.1 |
| 20260506163004 | 74 | 210 | 11.0 | 47.0 | 0.00 | 0.00 | 0.00 | 49 | 1002.2 |
| 20260506161502 | 74 | 240 | 18.0 | 47.0 | 0.00 | 0.00 | 0.00 | 48 | 1002.3 |
| 20260506160001 | 75 | 230 | 16.0 | 53.0 | 0.00 | 0.00 | 0.00 | 48 | 1002.5 |
| 20260506154600 | 75 | 230 | 17.0 | 51.0 | 0.00 | 0.00 | 0.00 | 49 | 1002.5 |
| 20260506153100 | 75 | 226 | 22.0 | 56.0 | 0.00 | 0.00 | 0.00 | 48 | 1002.6 |
| 20260506151608 | 75 | 246 | 24.0 | 47.0 | 0.00 | 0.00 | 0.00 | 47 | 1002.5 |
| 20260506144606 | 75 | 208 | 23.0 | 54.0 | 0.00 | 0.00 | 0.00 | 45 | 1002.6 |
| 20260506143100 | 76 | 235 | 14.0 | 45.0 | 0.00 | 0.00 | 0.00 | 43 | 1002.5 |
| 20260506141557 | 77 | 230 | 18.0 | 50.0 | 0.00 | 0.00 | 0.00 | 41 | 1002.7 |
| 20260506140105 | 78 | 210 | 14.0 | 53.0 | 0.00 | 0.00 | 0.00 | 41 | 1002.6 |
| 20260506134552 | 78 | 246 | 18.0 | 42.0 | 0.00 | 0.00 | 0.00 | 41 | 1002.9 |
| 20260506133114 | 77 | 213 | 19.0 | 52.0 | 0.00 | 0.00 | 0.00 | 41 | 1002.9 |
| 20260506131546 | 77 | 205 | 22.0 | 42.0 | 0.00 | 0.00 | 0.00 | 43 | 1003.2 |
| 20260506130057 | 76 | 203 | 17.0 | 40.0 | 0.00 | 0.00 | 0.00 | 42 | 1003.4 |
| 20260506124543 | 76 | 235 | 20.0 | 38.0 | 0.00 | 0.00 | 0.00 | 42 | 1003.5 |
| 20260506123042 | 76 | 208 | 13.0 | 42.0 | 0.00 | 0.00 | 0.00 | 41 | 1003.7 |
| 20260506121542 | 76 | 225 | 17.0 | 48.0 | 0.00 | 0.00 | 0.00 | 40 | 1003.9 |
| 20260506120043 | 76 | 235 | 10.0 | 32.0 | 0.00 | 0.00 | 0.00 | 40 | 1004.0 |
| 20260506114542 | 75 | 184 | 14.0 | 37.0 | 0.00 | 0.00 | 0.00 | 43 | 1004.1 |
| 20260506113035 | 75 | 176 | 22.0 | 34.0 | 0.00 | 0.00 | 0.00 | 45 | 1004.4 |
| 20260506111537 | 75 | 212 | 23.0 | 41.0 | 0.00 | 0.00 | 0.00 | 46 | 1004.7 |
| 20260506110036 | 74 | 188 | 15.0 | 38.0 | 0.00 | 0.00 | 0.00 | 48 | 1004.9 |
| 20260506104529 | 74 | 158 | 13.0 | 39.0 | 0.00 | 0.00 | 0.00 | 49 | 1005.1 |
| 20260506103028 | 73 | 190 | 17.0 | 40.0 | 0.00 | 0.00 | 0.00 | 48 | 1005.6 |
| 20260506101544 | 73 | 179 | 18.0 | 36.0 | 0.00 | 0.00 | 0.00 | 50 | 1005.6 |
| 20260506100025 | 73 | 179 | 10.0 | 31.0 | 0.00 | 0.00 | 0.00 | 49 | 1005.9 |
| 20260506094523 | 73 | 204 | 17.0 | 34.0 | 0.00 | 0.00 | 0.00 | 50 | 1006.1 |
| 20260506093021 | 73 | 202 | 8.0 | 25.0 | 0.00 | 0.00 | 0.00 | 53 | 1006.1 |
| 20260506091522 | 74 | 184 | 10.0 | 24.0 | 0.00 | 0.00 | 0.00 | 47 | 1006.2 |
| 20260506090015 | 73 | 157 | 2.0 | 17.0 | 0.00 | 0.00 | 0.00 | 50 | 1006.3 |
| 20260506084518 | 72 | 142 | 5.0 | 16.0 | 0.00 | 0.00 | 0.00 | 51 | 1006.3 |
| 20260506083008 | 72 | 211 | 2.0 | 16.0 | 0.00 | 0.00 | 0.00 | 53 | 1006.3 |
| 20260506081507 | 71 | 142 | 2.0 | 13.0 | 0.00 | 0.00 | 0.00 | 54 | 1006.3 |
| 20260506073104 | 70 | 187 | 0.0 | 7.0 | 0.00 | 0.00 | 0.00 | 56 | 1006.6 |
| 20260506071607 | 70 | 186 | 0.0 | 7.0 | 0.00 | 0.00 | 0.00 | 58 | 1006.7 |
| 20260506061539 | 65 | 186 | 0.0 | 0.0 | 0.00 | 0.00 | 0.00 | 64 | 1007.0 |
| 20260506044529 | 61 | 323 | 0.0 | 0.0 | 0.00 | 0.00 | 0.00 | 73 | 1006.7 |
| 20260506043028 | 60 | 336 | 0.0 | 0.0 | 0.00 | 0.00 | 0.00 | 74 | 1006.7 |
| 20260506041531 | 60 | 336 | 0.0 | 8.0 | 0.00 | 0.00 | 0.00 | 74 | 1006.5 |
| 20260506040025 | 61 | 338 | 2.0 | 13.0 | 0.00 | 0.00 | 0.00 | 74 | 1006.4 |
| 20260506034519 | 61 | 339 | 0.0 | 0.0 | 0.00 | 0.00 | 0.00 | 73 | 1006.4 |
| 20260506033016 | 62 | 340 | 0.0 | 13.0 | 0.00 | 0.00 | 0.00 | 72 | 1006.3 |
| 20260506031522 | 62 | 340 | 0.0 | 15.0 | 0.00 | 0.00 | 0.00 | 71 | 1006.3 |
| 20260506030020 | 62 | 338 | 4.0 | 23.0 | 0.00 | 0.00 | 0.00 | 71 | 1006.3 |